Torna al catalogo

SL-8 R/B

AttivoPO
NORAD 10918·ROCKET BODY·🇷🇺 Russia

Lanciato May 23, 1978 da Plesetsk Cosmodrome

Loading…

Prossimi Passaggi (prossime 24 ore)

TLE

AggiornatoSource: Space-Track

Epoca: Sep 14, 2026, 15:23 UTC

1 10918U 78053B   26257.64151032  .00000091  00000-0  76261-4 0  9992
2 10918  82.9176 326.7311 0028654 276.7331 247.6452 13.77579699427388

Traccia SL-8 R/B in tempo reale con AllMySat

Download on the App Store